Location: Unspecified
(51.0950°N, 12.9690°E)
Time: 21:54:32
(UTC+00:00)

Cosmos 1605 Rocket - Pass Details

Date: 28 October 2021
Orbit: 945 x 1005 km, 82.9° (Epoch: 01 December)

Event Time Altitude Azimuth Distance (km) Brightness Sun altitude
Rises 16:52:49 0° 174° (S) 3,681 7.1 -10.5°
Reaches altitude 10° 16:55:21 10° 171° (S) 2,745 6.4 -10.9°
Maximum altitude 17:01:32 60° 93° (E) 1,133 4.1 -11.9°
Drops below altitude 10° 17:07:49 10° 15° (NNE) 2,791 6.2 -12.8°
Sets 17:10:24 0° 13° (NNE) 3,747 6.9 -13.2°
